Weather in Ilyinka

Russia / Khabarovsk Krai     48°22′06″N   135°07′07″E
temp.,
°C
wind,
m/s
gust,
m/s
humid.,
%
clouds,
%
prec.,
mm/h
press.,
hPa
HPBL,
m
23 june, wed
wed2301:00+17sw326431 0.0 100931
04:00+15sw336999 0.0 100943
07:00+16ssw2473100 0.0 101088
10:00+23sw3655100 0.0 1009615
13:00+26wsw454324 0.0 10091698
16:00+27wsw454135 0.0 10081919
19:00+24wsw2361100 0.0 100783
22:00+19ssw22655 0.0 100712
24 june, thu
thu2401:00+16wsw11789 0.0 100811
04:00+15s228599 0.0 100718
07:00+18sw127789 0.0 100897
10:00+21sw236653 0.0 1008479
13:00+26sw345123 0.0 10071420
16:00+26sw46505 0.0 10061362
19:00+23nw007270 0.2 100411
22:00+20s238552 0.8 100445
25 june, fri
fri2501:00+18sw369413 0.5 1005197
04:00+16ssw359874 0.5 1005113
07:00+17ssw3695100 0.0 1005210
10:00+22ssw467282 0.0 1005676
13:00+26sw56567 0.0 10041314
16:00+28wsw565025 0.0 10021963
19:00+26wsw37635 0.0 1002842
22:00+20wsw2289100 2.1 100325
26 june, sat
sat2601:00+19ssw229193 0.0 100423
04:00+18w119362 1.5 100518
07:00+19ssw129028 0.5 100698
10:00+24ssw12685 0.5 1007679
13:00+28wsw235413 0.0 10071184
16:00+29wsw2350100 0.0 10061247
19:00+27nw0266100 0.2 1007562
22:00+19sse2292100 2.7 100828
27 june, sun
sun2701:00+19sw2288100 0.7 100822
04:00+17se1188100 0.9 100911
07:00+19ssw1290100 0.0 100976
10:00+23sw2262100 0.0 1009465
13:00+26w1249100 0.0 1008991
16:00+27wsw114784 0.0 10061142
19:00+25wsw1168100 0.0 1006101
22:00+20nnw0179100 0.0 100611